Location: State Camp
(41.2367°N, 77.7828°W)
Time: 18:20:56
(UTC-04:00)

Amateur Radio Satellites - All Passes

Search period start: 03 July 2015 17:50
Search period end: 04 July 2015 17:50
Location: State Camp, 41.2367°N, 77.7828°W

Satellite Date Start Highest point End Downlink Frequencies (MHz)
Time Altitude Azimuth
STARS 03 Jul 18:10:41 18:12:03 11° 298° (WNW) 18:13:12 437.465
SO-50 03 Jul 18:16:19 18:20:57 53° 308° (NW) 18:25:45 436.795
O/OREOS (USA 219) 03 Jul 18:23:47 18:28:15 61° 251° (WSW) 18:32:43 437.305
CUTE-I 03 Jul 18:28:05 18:33:24 69° 74° (ENE) 18:38:47 437.470
Cosmos 2491 03 Jul 18:33:22 18:38:16 15° 304° (NW) 18:42:35 435.465 / 435.565
PCSat 03 Jul 18:37:47 18:40:52 15° 321° (NW) 18:43:47 145.827
BRITE-PL 03 Jul 18:38:34 18:39:40 11° 62° (ENE) 18:41:05 437.365/2234.400
GONETS M04 03 Jul 18:52:28 18:56:19 14° 55° (NE) 19:00:46
MOZHAYETS 4 03 Jul 19:00:20 19:03:43 20° 294° (WNW) 19:06:58
Cubesat XI-IV 03 Jul 19:02:03 19:07:20 59° 259° (W) 19:12:40 437.490
AIST 2 03 Jul 19:02:38 19:06:05 24° 247° (WSW) 19:09:25 435.215
Cosmos 2504 03 Jul 19:04:46 19:11:12 31° 273° (W) 19:17:48 435.465 / 435.565
HO-68 03 Jul 19:19:22 19:24:10 20° 57° (ENE) 19:29:13 435.675
CUSAT 1 03 Jul 19:21:27 19:23:59 37° 76° (ENE) 19:26:26 437.405
CUBESAT XI-V 03 Jul 19:22:57 19:27:39 68° 101° (E) 19:32:17 437.345
STRAND 1 03 Jul 19:53:28 19:58:24 45° 99° (E) 20:03:19 437.568
GOMX 1 03 Jul 19:53:32 19:58:03 32° 71° (ENE) 20:02:23 467.674
CUTE 1.7 + AOD 2 03 Jul 19:58:56 20:01:34 17° 67° (ENE) 20:04:20 437.475
SO-50 03 Jul 20:01:17 20:02:43 11° 329° (NNW) 20:03:58 436.795
CANX-2 03 Jul 20:01:44 20:04:44 20° 68° (ENE) 20:07:51 2200.000
PRISM 03 Jul 20:02:49 20:06:57 53° 100° (E) 20:11:03 437.425
CUTE-I 03 Jul 20:10:59 20:14:06 15° 272° (W) 20:16:57 437.470
BRITE-PL 03 Jul 20:12:02 20:17:33 79° 77° (ENE) 20:22:46 437.365/2234.400
DANDE 03 Jul 20:18:42 20:21:22 35° 266° (W) 20:23:46 436.750
DOVE 4 03 Jul 20:41:59 20:46:49 60° 75° (ENE) 20:51:23 437.250
GONETS M04 03 Jul 20:46:33 20:55:14 71° 79° (E) 21:03:54
SEEDS 03 Jul 20:47:16 20:51:14 45° 73° (ENE) 20:55:15 437.485
CUBEBUG 2 03 Jul 20:54:31 20:57:12 17° 67° (ENE) 20:59:59 437.445
AAUSAT CUBESAT 2 03 Jul 21:00:49 21:04:43 43° 73° (ENE) 21:08:40 437.432
ZACube-1 03 Jul 21:02:03 21:03:39 12° 65° (ENE) 21:05:25 437.345
CUBESAT XI-V 03 Jul 21:02:11 21:04:34 14° 297° (WNW) 21:06:43 437.345
HO-68 03 Jul 21:04:00 21:11:10 83° 255° (WSW) 21:18:22 435.675
Oscar 11 03 Jul 21:10:47 21:14:20 26° 69° (ENE) 21:17:57 145.826/435.025
M-CUBED/EXP-1 PRIME 03 Jul 21:12:40 21:15:59 23° 100° (E) 21:19:36 437.505
DELFI C3 03 Jul 21:23:32 21:26:42 24° 69° (ENE) 21:29:59 145.870
COMPASS 1 03 Jul 21:25:51 21:30:00 82° 258° (WSW) 21:34:11 437.405
GOMX 1 03 Jul 21:31:37 21:36:09 30° 265° (W) 21:40:26 467.674
CUTE 1.7 + AOD 2 03 Jul 21:33:10 21:37:11 42° 262° (W) 21:41:13 437.475
STRAND 1 03 Jul 21:33:20 21:37:20 23° 295° (WNW) 21:41:13 437.568
CINEMA 3 03 Jul 21:34:44 21:39:19 84° 260° (W) 21:43:41 145.822/145.860
Cosmos 2499 03 Jul 21:35:34 21:42:21 32° 70° (ENE) 21:49:43 435.465 / 435.565
FUNcube-1 03 Jul 21:36:28 21:40:00 27° 70° (ENE) 21:43:35 145.935
CANX-2 03 Jul 21:36:35 21:40:27 35° 263° (W) 21:44:19 2200.000
PRISM 03 Jul 21:39:42 21:41:59 14° 296° (WNW) 21:44:05 437.425
UWE-3 03 Jul 21:45:58 21:50:03 47° 73° (ENE) 21:54:05 435.000/436.395/437.385
BRITE-PL 03 Jul 21:53:55 21:56:37 13° 272° (W) 21:58:57 437.365/2234.400
VELOX 1 03 Jul 22:09:58 22:12:27 15° 64° (ENE) 22:15:07 145.980
AUBIESAT-1 03 Jul 22:13:13 22:17:26 89° 97° (E) 22:21:57 437.475
DX 1 03 Jul 22:21:06 22:25:03 34° 70° (ENE) 22:29:03 434.975-435.025
DOVE 4 03 Jul 22:22:11 22:24:56 14° 270° (W) 22:27:23 437.250
SEEDS 03 Jul 22:24:52 22:27:19 15° 270° (W) 22:29:38 437.485
CUBEBUG 2 03 Jul 22:29:31 22:33:38 43° 261° (W) 22:37:40 437.445
ZACube-1 03 Jul 22:35:24 22:39:35 60° 260° (W) 22:43:43 437.345
AAUSAT CUBESAT 2 03 Jul 22:38:04 22:40:35 15° 270° (W) 22:42:57 437.432
UKube-1 03 Jul 22:43:01 22:47:15 55° 73° (ENE) 22:51:31 .
GONETS M04 03 Jul 22:44:42 22:51:22 24° 278° (W) 22:57:40
Oscar 11 03 Jul 22:46:46 22:50:27 27° 265° (W) 22:54:06 145.826/435.025
M-CUBED/EXP-1 PRIME 03 Jul 22:47:01 22:50:50 34° 293° (WNW) 22:54:52 437.505
ANTELSAT 03 Jul 22:52:07 22:55:10 19° 92° (E) 22:58:24 437.575/2403.000
AISAT 03 Jul 22:54:46 22:59:01 44° 72° (ENE) 23:03:18 437.250
HO-68 03 Jul 22:56:31 23:00:07 14° 274° (W) 23:03:13 435.675
DELFI C3 03 Jul 22:58:18 23:01:43 26° 265° (W) 23:05:06 145.870
HUMSAT D 03 Jul 23:01:13 23:05:18 73° 258° (WSW) 23:09:25 437.325/437.525
TIGRISAT 03 Jul 23:04:30 23:08:02 24° 94° (E) 23:11:42 435.000
50 SAT 03 Jul 23:08:06 23:11:54 67° 76° (ENE) 23:15:43 437.505
FUNcube-1 03 Jul 23:12:53 23:16:21 24° 266° (W) 23:19:43 145.935
CUBEBUG 1 03 Jul 23:15:27 23:19:34 39° 71° (ENE) 23:23:43 437.445
NANOSAT C BR1 03 Jul 23:20:01 23:22:11 14° 90° (E) 23:24:33 145.865
ESTCUBE 1 03 Jul 23:23:35 23:28:02 57° 73° (ENE) 23:32:31 437.505/2401.250
UWE-3 03 Jul 23:24:29 23:26:53 14° 270° (W) 23:29:06 435.000/436.395/437.385
DUCHIFAT 1 03 Jul 23:26:53 23:29:31 17° 91° (E) 23:32:16 145.980
Cosmos 2499 03 Jul 23:28:15 23:35:49 53° 268° (W) 23:43:52 435.465 / 435.565
POLYITAN 1 03 Jul 23:30:35 23:33:35 19° 93° (E) 23:36:43 437.675
TISAT 1 03 Jul 23:32:43 23:34:02 12° 64° (ENE) 23:35:34 437.305
UNISAT 6 03 Jul 23:43:17 23:47:39 68° 101° (E) 23:52:07 437.425
VELOX 1 03 Jul 23:44:13 23:48:36 55° 260° (W) 23:53:01 145.980
BUGSAT 1 03 Jul 23:47:28 23:50:11 18° 92° (E) 23:53:00 437.445
AUBIESAT-1 03 Jul 23:51:11 23:51:44 10° 301° (WNW) 23:52:02 437.475
PCSat 03 Jul 23:56:58 00:00:05 16° 39° (NE) 00:03:22 145.827
DX 1 03 Jul 23:57:59 00:01:24 21° 267° (W) 00:04:43 434.975-435.025
QB50P2 03 Jul 23:59:41 00:03:41 41° 98° (E) 00:07:42 145.880/145.840
POPSAT HIP 1 04 Jul 00:00:38 00:04:37 41° 98° (E) 00:08:37 437.405
SPROUT 04 Jul 00:20:25 00:24:37 56° 74° (ENE) 00:28:51 437.525
UKube-1 04 Jul 00:21:35 00:23:47 13° 270° (W) 00:25:46 .
ANTELSAT 04 Jul 00:28:03 00:32:09 39° 288° (WNW) 00:36:17 437.575/2403.000
AISAT 04 Jul 00:32:50 00:35:51 17° 269° (W) 00:38:44 437.250
QB50P1 04 Jul 00:39:38 00:43:50 69° 286° (WNW) 00:48:00 145.935-145.965
TIGRISAT 04 Jul 00:40:58 00:44:49 30° 290° (WNW) 00:48:39 435.000
Cosmos 2491 04 Jul 00:48:50 00:50:16 11° 51° (NE) 00:52:25 435.465 / 435.565
CUBEBUG 1 04 Jul 00:52:50 00:56:06 19° 268° (W) 00:59:15 437.445
NANOSAT C BR1 04 Jul 00:54:17 00:58:20 47° 287° (WNW) 01:02:22 145.865
DUCHIFAT 1 04 Jul 01:01:36 01:05:32 40° 288° (WNW) 01:09:26 145.980
ESTCUBE 1 04 Jul 01:02:53 01:05:20 14° 271° (W) 01:07:34 437.505/2401.250
TISAT 1 04 Jul 01:05:05 01:09:19 68° 259° (W) 01:13:32 437.305
POLYITAN 1 04 Jul 01:05:47 01:09:37 34° 289° (WNW) 01:13:25 437.675
SO-50 04 Jul 01:07:55 01:11:45 22° 42° (NE) 01:15:39 436.795
BEESAT 04 Jul 01:10:06 01:13:50 24° 67° (ENE) 01:17:41 436.000
RS-15 04 Jul 01:14:03 01:21:01 21° 102° (ESE) 01:28:44 29.354- 29.394
BUGSAT 1 04 Jul 01:22:05 01:25:48 34° 289° (WNW) 01:29:27 437.445
UNISAT 6 04 Jul 01:22:08 01:23:59 12° 296° (WNW) 01:25:38 437.425
SWISSCUBE 04 Jul 01:24:54 01:29:13 36° 70° (ENE) 01:33:36 437.505
ITUPSAT 1 04 Jul 01:29:50 01:34:10 36° 70° (ENE) 01:38:34 437.325
QB50P2 04 Jul 01:36:29 01:39:18 17° 294° (WNW) 01:41:59 145.880/145.840
POPSAT HIP 1 04 Jul 01:37:23 01:40:13 17° 294° (WNW) 01:42:55 437.405
PCSat 04 Jul 01:38:58 01:44:26 83° 60° (ENE) 01:49:51 145.827
SPROUT 04 Jul 01:59:05 02:01:07 13° 271° (W) 02:02:56 437.525
Oscar 19 04 Jul 02:24:40 02:29:39 51° 99° (E) 02:34:39 437.125/150
Gurwin Techsat 1B 04 Jul 02:26:03 02:29:00 15° 89° (E) 02:32:12 435.225
KKS-1 04 Jul 02:35:20 02:39:09 29° 69° (ENE) 02:43:02 437.445
ITAMSAT 1 04 Jul 02:35:50 02:39:13 18° 90° (E) 02:42:47 435.822/435.867
Cosmos 2491 04 Jul 02:41:06 02:49:42 58° 76° (ENE) 02:58:15 435.465 / 435.565
BEESAT 04 Jul 02:47:04 02:51:30 37° 263° (W) 02:55:56 436.000
SO-50 04 Jul 02:47:50 02:52:43 59° 241° (WSW) 02:57:30 436.795
AIST 1 04 Jul 03:00:00 03:04:10 41° 77° (ENE) 03:08:16
SWISSCUBE 04 Jul 03:03:14 03:07:10 24° 266° (W) 03:11:01 437.505
ITUPSAT 1 04 Jul 03:08:14 03:12:09 24° 266° (W) 03:16:00 437.325
YUBILEINY 04 Jul 03:15:34 03:23:23 41° 88° (E) 03:31:22 435.215
RS-15 04 Jul 03:21:03 03:31:57 88° 121° (ESE) 03:43:16 29.354- 29.394
PCSat 04 Jul 03:24:42 03:27:13 13° 256° (WSW) 03:29:24 145.827
STARS 04 Jul 03:28:23 03:32:44 65° 75° (ENE) 03:37:07 437.465
JAS-2 04 Jul 03:39:03 03:44:30 27° 93° (E) 03:50:35 435.910
AO-7 04 Jul 03:56:16 04:02:08 22° 90° (E) 04:08:22 29.400- 29.500
Gurwin Techsat 1B 04 Jul 04:04:16 04:09:33 66° 287° (WNW) 04:14:49 435.225
Oscar 19 04 Jul 04:04:55 04:08:41 20° 295° (WNW) 04:12:18 437.125/150
KKS-1 04 Jul 04:11:59 04:15:46 26° 265° (W) 04:19:29 437.445
ITAMSAT 1 04 Jul 04:14:01 04:19:09 56° 288° (WNW) 04:24:13 435.822/435.867
MOZHAYETS 4 04 Jul 04:24:13 04:28:29 41° 72° (ENE) 04:32:49
AIST 1 04 Jul 04:38:44 04:41:29 16° 273° (W) 04:44:01
Cosmos 2491 04 Jul 04:38:45 04:46:08 31° 275° (W) 04:53:15 435.465 / 435.565
HORYU 2 04 Jul 05:03:08 05:07:37 75° 102° (ESE) 05:12:05 437.375
STARS 04 Jul 05:08:13 05:09:42 11° 272° (W) 05:10:56 437.465
YUBILEINY 04 Jul 05:11:59 05:20:12 44° 287° (WNW) 05:28:22 435.215
JAS-2 04 Jul 05:23:24 05:29:50 58° 288° (WNW) 05:36:59 435.910
RS-15 04 Jul 05:36:18 05:46:01 33° 329° (NNW) 05:55:55 29.354- 29.394
Cosmos 2504 04 Jul 05:43:45 05:49:51 35° 88° (E) 05:56:03 435.465 / 435.565
AO-7 04 Jul 05:47:32 05:55:56 80° 289° (WNW) 06:04:16 29.400- 29.500
MOZHAYETS 4 04 Jul 06:02:34 06:05:55 19° 269° (W) 06:09:10
CUBESAT XI-V 04 Jul 06:26:00 06:30:38 66° 75° (ENE) 06:35:22 437.345
HORYU 2 04 Jul 06:42:05 06:43:43 12° 298° (WNW) 06:45:07 437.375
CUTE-I 04 Jul 06:45:45 06:50:15 27° 94° (E) 06:54:48 437.470
PRISM 04 Jul 06:52:45 06:56:37 39° 71° (ENE) 07:00:33 437.425
O/OREOS (USA 219) 04 Jul 06:58:56 07:01:18 15° 101° (E) 07:03:53 437.305
STRAND 1 04 Jul 07:09:10 07:14:15 66° 73° (ENE) 07:19:24 437.568
JAS-2 04 Jul 07:13:05 07:13:59 10° 303° (WNW) 07:14:26 435.910
Cubesat XI-IV 04 Jul 07:19:17 07:24:35 56° 100° (E) 07:29:51 437.490
BEESAT 3 04 Jul 07:32:14 07:36:03 41° 117° (ESE) 07:39:56 437.485
Cosmos 2504 04 Jul 07:35:38 07:42:02 37° 287° (WNW) 07:48:20 435.465 / 435.565
AO-7 04 Jul 07:42:02 07:47:37 19° 309° (NW) 07:52:51 29.400- 29.500
BEESAT 2 04 Jul 07:43:45 07:47:37 43° 117° (ESE) 07:51:34 435.950
DANDE 04 Jul 07:44:28 07:50:13 27° 93° (E) 07:55:08 436.750
ISS 04 Jul 07:49:20 07:51:23 16° 132° (SE) 07:53:30 145.825
RS-15 04 Jul 07:55:14 08:03:17 21° 3° (N) 08:11:38 29.354- 29.394
GONETS M04 04 Jul 07:55:54 08:00:03 15° 78° (ENE) 08:04:48
M-CUBED/EXP-1 PRIME 04 Jul 08:01:53 08:04:29 22° 64° (ENE) 08:07:14 437.505
CUBESAT XI-V 04 Jul 08:06:26 08:08:38 13° 272° (W) 08:10:35 437.345
VERMONT LUNAR 04 Jul 08:16:00 08:18:44 28° 157° (SSE) 08:21:30 437.305
BRITE-PL 04 Jul 08:18:23 08:21:36 21° 92° (E) 08:24:49 437.365/2234.400
CUSAT 1 04 Jul 08:25:18 08:31:57 74° 99° (E) 08:37:00 437.405
CUTE-I 04 Jul 08:25:28 08:30:26 38° 291° (WNW) 08:35:20 437.470
PRISM 04 Jul 08:29:24 08:32:15 17° 268° (W) 08:34:59 437.425
HO-68 04 Jul 08:33:16 08:37:48 18° 89° (E) 08:42:43 435.675
O/OREOS (USA 219) 04 Jul 08:35:59 08:40:20 51° 296° (WNW) 08:44:42 437.305
DOVE 4 04 Jul 08:42:50 08:44:43 13° 89° (E) 08:46:50 437.250
STRAND 1 04 Jul 08:51:03 08:54:02 15° 271° (W) 08:56:45 437.568
AIST 2 04 Jul 08:59:22 09:03:35 69° 121° (ESE) 09:07:52 435.215
Cubesat XI-IV 04 Jul 09:00:23 09:04:18 20° 297° (WNW) 09:08:02 437.490
AUBIESAT-1 04 Jul 09:01:50 09:05:07 65° 253° (WSW) 09:08:33 437.475
COMPASS 1 04 Jul 09:10:21 09:12:57 16° 91° (E) 09:15:42 437.405
BEESAT 3 04 Jul 09:10:58 09:14:11 21° 315° (NW) 09:17:21 437.485
CUTE 1.7 + AOD 2 04 Jul 09:18:19 09:22:07 31° 96° (E) 09:25:58 437.475
CANX-2 04 Jul 09:21:29 09:25:29 37° 97° (E) 09:29:30 2200.000
BEESAT 2 04 Jul 09:22:42 09:25:54 21° 315° (NW) 09:29:03 435.950
ISS 04 Jul 09:24:18 09:27:30 57° 328° (NNW) 09:30:43 145.825
DANDE 04 Jul 09:26:15 09:33:21 50° 282° (WNW) 09:38:48 436.750
CINEMA 3 04 Jul 09:30:13 09:33:19 20° 93° (E) 09:36:33 145.822/145.860
GOMX 1 04 Jul 09:33:03 09:37:17 85° 102° (ESE) 09:41:25 467.674
M-CUBED/EXP-1 PRIME 04 Jul 09:36:55 09:39:22 19° 261° (W) 09:41:47 437.505
GONETS M04 04 Jul 09:46:54 09:55:41 81° 96° (E) 10:04:28
ANTELSAT 04 Jul 09:51:56 09:54:38 17° 66° (ENE) 09:57:27 437.575/2403.000
VERMONT LUNAR 04 Jul 09:52:20 09:55:27 73° 172° (S) 09:58:35 437.305
BRITE-PL 04 Jul 09:56:26 10:00:17 31° 290° (WNW) 10:03:57 437.365/2234.400
TIGRISAT 04 Jul 10:03:51 10:07:04 22° 68° (ENE) 10:10:22 435.000
PHONESAT 2.4 04 Jul 10:05:02 10:08:13 37° 160° (SSE) 10:11:27 2401.200-2431.200
SEEDS 04 Jul 10:06:51 10:11:08 90° 284° (WNW) 10:15:24 437.485
RS-15 04 Jul 10:09:53 10:20:19 38° 36° (NE) 10:31:19 29.354- 29.394
CUSAT 1 04 Jul 10:11:15 10:14:44 15° 290° (WNW) 10:17:32 437.405
NANOSAT C BR1 04 Jul 10:13:42 10:15:11 12° 64° (ENE) 10:16:52 145.865
Cosmos 2499 04 Jul 10:14:37 10:19:35 22° 84° (E) 10:24:52 435.465 / 435.565
AAUSAT CUBESAT 2 04 Jul 10:18:47 10:23:01 84° 102° (ESE) 10:27:14 437.432
DOVE 4 04 Jul 10:18:52 10:22:53 47° 287° (WNW) 10:26:52 437.250
HO-68 04 Jul 10:19:14 10:26:25 80° 288° (WNW) 10:33:34 435.675
DUCHIFAT 1 04 Jul 10:20:08 10:22:11 14° 65° (ENE) 10:24:25 145.980
CUBEBUG 2 04 Jul 10:20:14 10:24:05 35° 97° (E) 10:28:03 437.445
ZACube-1 04 Jul 10:24:13 10:27:37 24° 94° (E) 10:31:08 437.345
POLYITAN 1 04 Jul 10:24:17 10:26:50 16° 66° (ENE) 10:29:31 437.675
Oscar 11 04 Jul 10:33:14 10:37:30 52° 99° (E) 10:41:45 145.826/435.025
DELFI C3 04 Jul 10:36:41 10:40:30 39° 98° (E) 10:44:21 145.870
BUGSAT 1 04 Jul 10:38:14 10:40:27 14° 66° (ENE) 10:42:50 437.445
AIST 2 04 Jul 10:39:55 10:42:39 16° 319° (NW) 10:45:17 435.215
UNISAT 6 04 Jul 10:42:20 10:46:32 58° 74° (ENE) 10:50:45 437.425
COMPASS 1 04 Jul 10:44:51 10:48:51 42° 288° (WNW) 10:52:50 437.405
HUMSAT D 04 Jul 10:46:01 10:48:47 18° 92° (E) 10:51:41 437.325/437.525
QB50P2 04 Jul 10:52:39 10:56:25 32° 71° (ENE) 11:00:13 145.880/145.840
POPSAT HIP 1 04 Jul 10:53:28 10:57:13 31° 71° (ENE) 11:01:00 437.405
CUTE 1.7 + AOD 2 04 Jul 10:54:29 10:57:54 23° 291° (WNW) 11:01:14 437.475
CANX-2 04 Jul 10:58:03 11:01:11 19° 292° (WNW) 11:04:11 2200.000
FUNcube-1 04 Jul 10:59:57 11:04:08 59° 101° (E) 11:08:21 145.935
ISS 04 Jul 11:02:16 11:04:27 16° 347° (NNW) 11:06:36 145.825
CINEMA 3 04 Jul 11:06:54 11:10:37 31° 289° (WNW) 11:14:21 145.822/145.860
UWE-3 04 Jul 11:11:43 11:15:56 76° 284° (WNW) 11:20:13 435.000/436.395/437.385
ESTCUBE 1 04 Jul 11:18:27 11:20:02 12° 88° (E) 11:21:54 437.505/2401.250
ANTELSAT 04 Jul 11:27:02 11:31:08 43° 262° (W) 11:35:13 437.575/2403.000
VERMONT LUNAR 04 Jul 11:29:11 11:32:19 65° 190° (S) 11:35:27 437.305
QB50P1 04 Jul 11:31:57 11:36:12 87° 77° (ENE) 11:40:28 145.935-145.965
VELOX 1 04 Jul 11:35:03 11:38:47 27° 95° (E) 11:42:34 145.980
TIGRISAT 04 Jul 11:39:48 11:43:41 32° 263° (W) 11:47:31 435.000
PHONESAT 2.4 04 Jul 11:42:39 11:46:05 79° 178° (S) 11:49:33 2401.200-2431.200
DX 1 04 Jul 11:45:03 11:49:23 65° 102° (ESE) 11:53:40 434.975-435.025
NANOSAT C BR1 04 Jul 11:46:19 11:50:32 65° 259° (W) 11:54:45 145.865
GONETS M04 04 Jul 11:47:06 11:53:44 22° 298° (WNW) 12:00:00
DUCHIFAT 1 04 Jul 11:53:25 11:57:35 55° 260° (W) 12:01:45 145.980
CUBEBUG 2 04 Jul 11:57:30 12:00:36 20° 292° (WNW) 12:03:39 437.445
POLYITAN 1 04 Jul 11:58:19 12:02:24 45° 261° (W) 12:06:30 437.675
ZACube-1 04 Jul 12:00:20 12:03:59 28° 290° (WNW) 12:07:38 437.345
Cosmos 2499 04 Jul 12:05:11 12:12:10 61° 282° (WNW) 12:19:14 435.465 / 435.565
UKube-1 04 Jul 12:06:20 12:10:41 80° 285° (WNW) 12:14:59 .
HO-68 04 Jul 12:08:58 12:13:11 16° 306° (NW) 12:17:04 435.675
Oscar 11 04 Jul 12:10:45 12:13:18 15° 295° (WNW) 12:15:41 145.826/435.025
BUGSAT 1 04 Jul 12:11:25 12:15:33 51° 260° (W) 12:19:41 437.445
DELFI C3 04 Jul 12:12:35 12:15:19 17° 293° (WNW) 12:17:56 145.870
50 SAT 04 Jul 12:18:06 12:22:01 78° 284° (WNW) 12:25:56 437.505
HUMSAT D 04 Jul 12:20:50 12:24:41 37° 288° (WNW) 12:28:33 437.325/437.525
AISAT 04 Jul 12:21:37 12:26:03 89° 283° (WNW) 12:30:26 437.250
UNISAT 6 04 Jul 12:22:06 12:23:47 12° 271° (W) 12:25:13 437.425
RS-15 04 Jul 12:22:22 12:34:07 79° 240° (WSW) 12:46:17 29.354- 29.394
QB50P2 04 Jul 12:29:03 12:32:22 21° 267° (W) 12:35:36 145.880/145.840
POPSAT HIP 1 04 Jul 12:29:48 12:33:09 22° 267° (W) 12:36:24 437.405
FUNcube-1 04 Jul 12:38:04 12:40:02 13° 295° (WNW) 12:41:50 145.935
ISS 04 Jul 12:40:00 12:41:49 14° 7° (N) 12:43:38 145.825
CUBEBUG 1 04 Jul 12:40:11 12:44:35 79° 102° (ESE) 12:48:54 437.445
TISAT 1 04 Jul 12:50:29 12:53:21 18° 92° (E) 12:56:19 437.305
ESTCUBE 1 04 Jul 12:52:55 12:57:27 65° 286° (WNW) 13:01:56 437.505/2401.250
VERMONT LUNAR 04 Jul 13:06:24 13:08:58 22° 205° (SSW) 13:11:30 437.305
VELOX 1 04 Jul 13:11:32 13:15:18 28° 291° (WNW) 13:19:00 145.980
PHONESAT 2.4 04 Jul 13:20:37 13:24:03 60° 193° (SSW) 13:27:29 2401.200-2431.200
DX 1 04 Jul 13:23:10 13:25:09 13° 297° (WNW) 13:26:55 434.975-435.025
YUBILEINY 04 Jul 13:26:00 13:31:50 20° 61° (ENE) 13:38:05 435.215
Oscar 19 04 Jul 13:41:25 13:46:31 74° 75° (ENE) 13:51:40 437.125/150
SPROUT 04 Jul 13:42:54 13:47:11 72° 285° (WNW) 13:51:25 437.525
Gurwin Techsat 1B 04 Jul 13:46:43 13:50:58 26° 66° (ENE) 13:55:20 435.225
Cosmos 2491 04 Jul 13:53:02 13:54:58 11° 75° (ENE) 13:57:42 435.465 / 435.565
ITAMSAT 1 04 Jul 13:53:30 13:57:51 28° 67° (ENE) 14:02:19 435.822/435.867
ISS 04 Jul 14:15:58 14:18:57 33° 26° (NNE) 14:21:56 145.825
CUBEBUG 1 04 Jul 14:19:26 14:20:21 10° 298° (WNW) 14:21:01 437.445
TISAT 1 04 Jul 14:25:24 14:29:17 36° 289° (WNW) 14:33:05 437.305
RS-15 04 Jul 14:37:18 14:45:07 19° 259° (W) 14:52:14 29.354- 29.394
BEESAT 04 Jul 14:46:50 14:51:33 55° 100° (E) 14:56:15 436.000
AO-7 04 Jul 14:55:09 15:02:10 33° 58° (ENE) 15:09:23 29.400- 29.500
PHONESAT 2.4 04 Jul 14:59:06 15:01:44 20° 208° (SSW) 15:04:20 2401.200-2431.200
SWISSCUBE 04 Jul 15:02:22 15:07:12 86° 104° (ESE) 15:12:00 437.505
ITUPSAT 1 04 Jul 15:07:36 15:12:28 87° 105° (ESE) 15:17:17 437.325
STARS 04 Jul 15:20:16 15:21:44 12° 89° (E) 15:23:27 437.465
YUBILEINY 04 Jul 15:21:15 15:30:03 88° 264° (W) 15:38:52 435.215
Oscar 19 04 Jul 15:24:08 15:26:33 13° 272° (W) 15:28:39 437.125/150
Gurwin Techsat 1B 04 Jul 15:25:43 15:30:45 42° 262° (W) 15:35:47 435.225
AIST 1 04 Jul 15:29:46 15:33:19 25° 90° (E) 15:37:00
Cosmos 2504 04 Jul 15:31:39 15:33:06 11° 57° (ENE) 15:35:10 435.465 / 435.565
ITAMSAT 1 04 Jul 15:32:25 15:37:14 37° 263° (W) 15:42:03 435.822/435.867
JAS-2 04 Jul 15:36:35 15:41:39 62° 73° (ENE) 15:47:00 435.910
Cosmos 2491 04 Jul 15:41:40 15:50:20 67° 93° (E) 15:59:04 435.465 / 435.565
BEESAT 3 04 Jul 15:50:53 15:54:21 27° 48° (NE) 15:57:48 437.485
ISS 04 Jul 15:52:24 15:55:19 31° 224° (SW) 15:58:14 145.825
HORYU 2 04 Jul 16:01:12 16:05:35 69° 75° (ENE) 16:09:59 437.375
KKS-1 04 Jul 16:02:11 16:06:33 58° 101° (E) 16:10:55 437.445
BEESAT 2 04 Jul 16:02:57 16:06:31 28° 48° (NE) 16:10:03 435.950
PCSat 04 Jul 16:20:19 16:25:42 78° 118° (ESE) 16:31:10 145.827
BEESAT 04 Jul 16:25:49 16:29:00 17° 296° (WNW) 16:32:00 436.000
SWISSCUBE 04 Jul 16:42:44 16:44:25 11° 299° (WNW) 16:45:50 437.505
AO-7 04 Jul 16:46:19 16:54:33 61° 257° (WSW) 17:02:51 29.400- 29.500
ITUPSAT 1 04 Jul 16:48:05 16:49:43 11° 299° (WNW) 16:51:06 437.325
STARS 04 Jul 16:54:20 16:58:40 62° 286° (WNW) 17:02:58 437.465
SO-50 04 Jul 17:01:54 17:06:23 46° 117° (ESE) 17:11:04 436.795
Cubesat XI-IV 04 Jul 17:05:00 17:07:13 13° 60° (ENE) 17:09:43 437.490
O/OREOS (USA 219) 04 Jul 17:06:50 17:10:49 30° 59° (ENE) 17:14:50 437.305
AIST 1 04 Jul 17:07:08 17:10:55 27° 287° (WNW) 17:14:40
Cosmos 2504 04 Jul 17:19:36 17:27:01 64° 79° (E) 17:35:02 435.465 / 435.565
YUBILEINY 04 Jul 17:20:25 17:25:47 17° 281° (W) 17:30:38 435.215
AIST 2 04 Jul 17:21:14 17:25:16 44° 52° (NE) 17:29:15 435.215
JAS-2 04 Jul 17:24:36 17:27:31 14° 273° (W) 17:30:13 435.910
BEESAT 3 04 Jul 17:28:44 17:32:17 29° 245° (WSW) 17:35:45 437.485
KKS-1 04 Jul 17:40:19 17:42:45 14° 296° (WNW) 17:45:00 437.445
BEESAT 2 04 Jul 17:41:00 17:44:33 28° 245° (WSW) 17:47:58 435.950
HORYU 2 04 Jul 17:41:37 17:42:47 11° 272° (W) 17:43:41 437.375
